TimeEDT,TemperatureF,Dew PointF,Humidity,Sea Level PressureIn,VisibilityMPH,Wind Direction,Wind SpeedMPH,Gust SpeedMPH,PrecipitationIn,Events,Conditions,WindDirDegrees,DateUTC
12:56 AM,44.1,34.0,68,29.92,10.0,WSW,6.9,-,N/A,,Clear,240,2012-10-31 04:56:00
1:56 AM,46.0,34.0,63,29.93,10.0,West,8.1,-,N/A,,Clear,270,2012-10-31 05:56:00
2:56 AM,45.0,34.0,65,29.92,10.0,WSW,5.8,-,N/A,,Clear,250,2012-10-31 06:56:00
3:56 AM,44.1,35.1,71,29.91,10.0,West,8.1,-,N/A,,Clear,270,2012-10-31 07:56:00
4:56 AM,45.0,36.0,71,29.92,10.0,West,8.1,-,N/A,,Clear,260,2012-10-31 08:56:00
5:56 AM,46.4,35.6,66,29.93,10.0,West,6.9,-,N/A,,Clear,260,2012-10-31 09:56:00
6:56 AM,46.0,37.0,71,29.96,10.0,WSW,6.9,-,N/A,,Scattered Clouds,250,2012-10-31 10:56:00
7:56 AM,43.0,36.0,76,29.98,10.0,WSW,4.6,-,N/A,,Scattered Clouds,240,2012-10-31 11:56:00
8:56 AM,50.0,37.9,63,29.99,10.0,WSW,10.4,-,N/A,,Mostly Cloudy,250,2012-10-31 12:56:00
9:56 AM,54.0,37.0,53,29.99,10.0,West,10.4,-,N/A,,Scattered Clouds,270,2012-10-31 13:56:00
10:56 AM,60.1,36.0,41,29.99,10.0,WSW,12.7,-,N/A,,Scattered Clouds,250,2012-10-31 14:56:00
11:56 AM,64.0,36.0,35,29.98,10.0,West,17.3,20.7,N/A,,Partly Cloudy,270,2012-10-31 15:56:00
12:56 PM,66.9,36.0,32,29.95,10.0,WNW,16.1,24.2,N/A,,Partly Cloudy,290,2012-10-31 16:56:00
1:56 PM,69.1,37.0,31,29.93,10.0,West,21.9,27.6,N/A,,Clear,260,2012-10-31 17:56:00
2:56 PM,70.0,37.9,31,29.90,10.0,West,19.6,23.0,N/A,,Clear,260,2012-10-31 18:56:00
3:56 PM,70.0,39.0,32,29.88,10.0,West,15.0,21.9,N/A,,Clear,280,2012-10-31 19:56:00
4:56 PM,70.0,39.9,33,29.88,10.0,West,16.1,-,N/A,,Clear,270,2012-10-31 20:56:00
5:56 PM,68.0,41.0,37,29.88,10.0,West,15.0,18.4,N/A,,Clear,270,2012-10-31 21:56:00
6:56 PM,63.0,43.0,48,29.90,10.0,WSW,6.9,-,N/A,,Partly Cloudy,240,2012-10-31 22:56:00
7:56 PM,59.0,44.1,58,29.91,10.0,SW,6.9,-,N/A,,Clear,220,2012-10-31 23:56:00
8:56 PM,59.0,45.0,60,29.93,10.0,SW,8.1,-,N/A,,Clear,230,2012-11-01 00:56:00
9:56 PM,60.1,45.0,57,29.95,10.0,SW,8.1,-,N/A,,Partly Cloudy,230,2012-11-01 01:56:00
10:56 PM,57.9,46.9,67,29.95,10.0,SW,6.9,-,N/A,,Clear,230,2012-11-01 02:56:00
11:56 PM,57.0,48.0,72,29.95,10.0,WSW,9.2,-,N/A,,Clear,240,2012-11-01 03:56:00